Weather History for Tupelo, MS

Change the Weather History Date:

Friday, December 6, 2013

  Actual Average Record
Temperature  
Mean Temperature 36 °F 46 °F  
Max Temperature 40 °F 56 °F 79 °F (1998)
Min Temperature 31 °F 36 °F 18 °F (1937)
Degree Days  
Heating Degree Days 29 19  
Month to date heating degree days 75 110  
Since 1 July heating degree days 698 632  
Cooling Degree Days 0 0  
Month to date cooling degree days 4 0  
Year to date cooling degree days 2031 2044  
Moisture  
Dew Point 34 °F    
Average Humidity 89    
Maximum Humidity 92    
Minimum Humidity 85    
Precipitation  
Precipitation 2.10 in 0.22 in 3.99 in (2004)
Month to date precipitation 2.35 1.31  
Year to date precipitation 49.22 50.04  
Snow  
Snow T in 0.00 in T in (2013)
Month to date snowfall T 0.0  
Since 1 July snowfall T 0.0  
Snow Depth 0.00 in    
Sea Level Pressure  
Sea Level Pressure 30.11 in    
Wind  
Wind Speed 13 mph (NNE)    
Max Wind Speed 21 mph    
Max Gust Speed 28 mph    
Visibility 6 miles    
Events Rain , Snow , Thunderstorm    
T = Trace of Precipitation, MM = Missing Value Source: NWS Daily Summary

Daily Weather History Graph

Daily Weather History Graph

Search for Another Location

Airport:

Trip Planner

Search our weather history database for the weather conditions in past years. The results will help you decide how hot, cold, wet, or windy it might be!

Date:

Astronomy

Dec. 06, 2013 Rise Set
Actual Time 6:47 AM CST 4:45 PM CST
Civil Twilight 6:19 AM CST 5:12 PM CST
Nautical Twilight 5:48 AM CST 5:43 PM CST
Astronomical Twilight 5:18 AM CST 6:14 PM CST
Moon 9:58 AM CST (12/6) 9:09 PM CST (12/6)
Length of Visible Light 10h 52m
Length of Day
9h 57m
Waxing Crescent, 19% of the Moon is Illuminated
Dec 6
Waxing Crescent
Dec 9
First Quarter
Dec 17
Full
Dec 25
Last Quarter
Jan 1
New

Hourly Weather History & Observations

Time (CST) Temp. Windchill Dew Point Humidity Pressure Visibility Wind Dir Wind Speed Gust Speed Precip Events Conditions
12:15 AM 39.2 °F 30.5 °F 37.4 °F 93% 30.03 in 10.0 mi NE 16.1 mph - 0.01 in   Overcast
12:27 AM 39.2 °F 30.8 °F 37.4 °F 93% 30.04 in 10.0 mi NE 15.0 mph - 0.01 in   Overcast
12:53 AM 39.0 °F 29.9 °F 36.0 °F 89% 30.01 in 10.0 mi NE 17.3 mph - 0.01 in Rain Light Rain
1:02 AM 39.2 °F 30.2 °F 35.6 °F 87% 30.03 in 6.0 mi NNE 17.3 mph - 0.00 in Rain , Thunderstorm Thunderstorms and Rain
1:43 AM 39.2 °F 30.8 °F 35.6 °F 87% 30.03 in 6.0 mi NE 15.0 mph - 0.20 in Rain Rain
1:53 AM 39.0 °F 31.0 °F 36.0 °F 89% 30.03 in 5.0 mi NE 13.8 mph 20.7 mph 0.22 in Rain Light Rain
2:16 AM 39.2 °F 32.0 °F 35.6 °F 87% 30.04 in 5.0 mi NE 11.5 mph - 0.05 in Rain Rain
2:31 AM 37.4 °F 28.2 °F 35.6 °F 93% 30.05 in 8.0 mi NNE 16.1 mph - 0.07 in Rain , Thunderstorm Light Thunderstorms and Rain
2:46 AM 37.4 °F 29.8 °F 35.6 °F 93% 30.05 in 6.0 mi NNE 11.5 mph - 0.09 in Snow Light Snow
2:51 AM 37.4 °F 28.2 °F 35.6 °F 93% 30.03 in 4.0 mi NE 16.1 mph - 0.09 in Snow , Thunderstorm Light Thunderstorms and Snow
2:53 AM 37.9 °F 29.6 °F 36.0 °F 93% 30.04 in 4.0 mi NE 13.8 mph - 0.10 in Snow , Thunderstorm Light Thunderstorms and Snow
3:18 AM 37.4 °F 30.3 °F 35.6 °F 93% 30.05 in 2.5 mi NE 10.4 mph - 0.15 in Rain , Thunderstorm Heavy Thunderstorms and Rain
3:41 AM 37.4 °F 29.3 °F 35.6 °F 93% 30.03 in 4.0 mi NE 12.7 mph - 0.37 in Rain , Thunderstorm Thunderstorms and Rain
3:53 AM 37.0 °F 29.3 °F 35.1 °F 93% 30.03 in 2.0 mi NE 11.5 mph - 0.44 in Rain , Thunderstorm Heavy Thunderstorms and Rain
4:08 AM 37.4 °F 31.4 °F 35.6 °F 93% 30.02 in 3.0 mi ENE 8.1 mph - 0.15 in Rain Heavy Rain
4:53 AM 37.9 °F 31.5 °F 36.0 °F 93% 30.04 in 5.0 mi NE 9.2 mph - 0.29 in Rain Rain
5:17 AM 37.4 °F 30.8 °F 35.6 °F 93% 30.04 in 7.0 mi NE 9.2 mph - 0.03 in Rain Light Rain
5:53 AM 37.9 °F 31.5 °F 36.0 °F 93% 30.06 in 10.0 mi North 9.2 mph - 0.06 in Rain Light Rain
6:53 AM 37.9 °F 30.9 °F 37.0 °F 97% 30.07 in 10.0 mi NNW 10.4 mph - 0.02 in   Overcast
7:14 AM 37.4 °F 28.5 °F 37.4 °F 100% 30.05 in 10.0 mi NE 15.0 mph - 0.00 in Thunderstorm Thunderstorm
7:32 AM 37.4 °F 32.1 °F 37.4 °F 100% 30.06 in 6.0 mi NNE 6.9 mph - 0.02 in Rain Light Rain
7:53 AM 37.9 °F 30.9 °F 37.0 °F 97% 30.08 in 8.0 mi North 10.4 mph - 0.05 in Rain Light Rain
8:53 AM 37.9 °F 30.0 °F 36.0 °F 93% 30.09 in 8.0 mi NNE 12.7 mph - 0.05 in   Overcast
9:04 AM 37.4 °F 28.9 °F 35.6 °F 93% 30.09 in 10.0 mi NNE 13.8 mph - 0.01 in   Overcast
9:53 AM 37.9 °F 28.9 °F 35.1 °F 89% 30.08 in 10.0 mi NE 16.1 mph 24.2 mph 0.01 in   Overcast
10:51 AM 37.4 °F 29.8 °F 35.6 °F 93% 30.09 in 5.0 mi NNE 11.5 mph - 0.00 in Rain Light Rain
10:53 AM 37.0 °F 29.8 °F 35.1 °F 93% 30.10 in 6.0 mi North 10.4 mph - 0.00 in Rain Light Rain
11:13 AM 37.4 °F 29.3 °F 35.6 °F 93% 30.08 in 1.8 mi NE 12.7 mph - 0.01 in Snow Light Snow
11:30 AM 37.4 °F 29.8 °F 35.6 °F 93% 30.07 in 2.0 mi NE 11.5 mph - 0.05 in Rain Light Rain
11:34 AM 37.4 °F 29.8 °F 35.6 °F 93% 30.07 in 4.0 mi NE 11.5 mph - 0.05 in Rain Light Rain
11:53 AM 37.0 °F 28.5 °F 35.1 °F 93% 30.09 in 7.0 mi North 13.8 mph - 0.06 in Rain Light Rain
12:14 PM 37.4 °F 29.3 °F 33.8 °F 87% 30.12 in 1.8 mi North 12.7 mph - 0.03 in Rain Heavy Rain
12:27 PM 37.4 °F 29.3 °F 35.6 °F 93% 30.11 in 2.5 mi NNE 12.7 mph - 0.12 in Rain Light Rain
12:34 PM 37.4 °F 29.8 °F 35.6 °F 93% 30.10 in 5.0 mi NNE 11.5 mph - 0.13 in Rain Light Rain
12:49 PM 37.4 °F 28.2 °F 33.8 °F 87% 30.07 in 5.0 mi NE 16.1 mph - 0.14 in Rain Light Rain
12:53 PM 37.0 °F 27.7 °F 35.1 °F 93% 30.08 in 5.0 mi NE 16.1 mph - 0.14 in Rain Light Rain
1:28 PM 37.4 °F 28.9 °F 33.8 °F 87% 30.08 in 2.5 mi NE 13.8 mph - 0.05 in Rain Rain
1:40 PM 37.4 °F 30.3 °F 35.6 °F 93% 30.09 in 4.0 mi NNE 10.4 mph - 0.06 in Snow Light Snow
1:45 PM 37.4 °F 30.3 °F 35.6 °F 93% 30.09 in 4.0 mi NNE 10.4 mph - 0.07 in Snow , Thunderstorm Light Thunderstorms and Snow
1:53 PM 37.0 °F 27.4 °F 34.0 °F 89% 30.08 in 4.0 mi NNE 17.3 mph - 0.07 in Snow , Thunderstorm Light Thunderstorms and Snow
2:02 PM 37.4 °F 29.3 °F 33.8 °F 87% 30.10 in 6.0 mi NNE 12.7 mph - 0.00 in   Overcast
2:20 PM 37.4 °F 29.3 °F 35.6 °F 93% 30.08 in 2.5 mi NE 12.7 mph - 0.02 in Rain Light Rain
2:28 PM 37.4 °F 28.5 °F 35.6 °F 93% 30.10 in 3.0 mi NNE 15.0 mph 19.6 mph 0.02 in Rain Rain
2:30 PM 37.4 °F 29.8 °F 33.8 °F 87% 30.10 in 3.0 mi NNE 11.5 mph 19.6 mph 0.02 in Rain , Thunderstorm Thunderstorms and Rain
2:43 PM 35.6 °F 28.6 °F 35.6 °F 100% 30.13 in 1.5 mi NNE 9.2 mph - 0.06 in Rain , Thunderstorm Heavy Thunderstorms and Rain
2:49 PM 35.6 °F 28.0 °F 33.8 °F 93% 30.15 in 0.8 mi North 10.4 mph - 0.29 in Rain , Thunderstorm Heavy Thunderstorms and Rain
2:53 PM 36.0 °F 27.5 °F 34.0 °F 93% 30.14 in 0.8 mi North 12.7 mph 18.4 mph 0.35 in Rain , Thunderstorm Heavy Thunderstorms and Rain
2:57 PM 35.6 °F 26.6 °F 33.8 °F 93% 30.12 in 1.2 mi NNE 13.8 mph 20.7 mph 0.06 in Rain , Thunderstorm Heavy Thunderstorms and Rain
3:03 PM 35.6 °F 25.2 °F 33.8 °F 93% 30.11 in 2.0 mi NNE 18.4 mph 26.5 mph 0.10 in Rain , Thunderstorm Heavy Thunderstorms and Rain
3:07 PM 35.6 °F 25.2 °F 33.8 °F 93% 30.12 in 3.0 mi NNE 18.4 mph 26.5 mph 0.12 in Rain Rain
3:14 PM 35.6 °F 26.2 °F 33.8 °F 93% 30.14 in 9.0 mi North 15.0 mph - 0.12 in   Overcast
3:25 PM 35.6 °F 25.5 °F 32.0 °F 87% 30.15 in 3.0 mi NNE 17.3 mph 27.6 mph 0.14 in Rain Heavy Rain
3:32 PM 35.6 °F 26.6 °F 33.8 °F 93% 30.16 in 5.0 mi NNE 13.8 mph 23.0 mph 0.16 in Rain Light Rain
3:40 PM 35.6 °F 25.9 °F 32.0 °F 87% 30.15 in 7.0 mi NNE 16.1 mph 24.2 mph 0.16 in Rain Rain
3:53 PM 35.1 °F 28.6 °F 32.0 °F 89% 30.21 in 4.0 mi North 8.1 mph - 0.19 in Rain Rain
4:02 PM 35.6 °F 26.2 °F 32.0 °F 87% 30.17 in 2.5 mi NNE 15.0 mph - 0.04 in Rain Heavy Rain
4:12 PM 35.6 °F 27.1 °F 32.0 °F 87% 30.17 in 7.0 mi NNE 12.7 mph 21.9 mph 0.05 in Rain Light Rain
4:28 PM 35.6 °F 25.5 °F 32.0 °F 87% 30.16 in 10.0 mi NNE 17.3 mph 23.0 mph 0.05 in   Overcast
4:36 PM 35.6 °F 25.5 °F 32.0 °F 87% 30.17 in 10.0 mi NNE 17.3 mph - 0.05 in   Overcast
4:53 PM 35.1 °F 25.5 °F 32.0 °F 89% 30.18 in 10.0 mi NE 15.0 mph 20.7 mph 0.05 in   Overcast
5:53 PM 35.1 °F 26.4 °F 32.0 °F 89% 30.18 in 10.0 mi NE 12.7 mph - N/A   Overcast
6:53 PM 36.0 °F 28.5 °F 32.0 °F 86% 30.23 in 10.0 mi NNE 10.4 mph - N/A   Overcast
7:53 PM 36.0 °F 28.0 °F 32.0 °F 86% 30.26 in 10.0 mi NNE 11.5 mph - N/A   Overcast
8:53 PM 35.1 °F 25.9 °F 32.0 °F 89% 30.29 in 10.0 mi NNE 13.8 mph - N/A   Overcast
9:04 PM 35.6 °F 26.6 °F 30.2 °F 81% 30.29 in 10.0 mi North 13.8 mph 21.9 mph N/A   Overcast
9:53 PM 33.1 °F 23.4 °F 30.0 °F 89% 30.32 in 10.0 mi NNE 13.8 mph - N/A   Overcast
10:53 PM 32.0 °F 19.8 °F 28.9 °F 88% 30.34 in 10.0 mi NNE 20.7 mph - N/A   Overcast
11:53 PM 30.9 °F 20.2 °F 28.0 °F 89% 30.36 in 10.0 mi NNE 15.0 mph 24.2 mph N/A   Overcast